Temp
10 10 11 11 11 11 11 12 11 11 11 11 11 11 11 10 11 11 11 11 11 11 10 10 10 10 10 10 10 10 10 10 10 10 10 10 9 9 9 9 9 8 8 8 8 8 7 7 7 7 7 7 7 8 8 9 9 10 10 10 10 10 11 11 11 11 11 11 11
9 10 10 10 11 11 11 11 11 11 11 11 11 11 10 10 10 10 10 10 10 10 10 10 10 10 10 10 10 10 10 10 9 9 9 9 9 9 9 8 8 8 8 7 7 7 7 6 7 7 6 7 7 7 7 8 9 9 9 9 10 10 10 10 10 10 10 11 11
9 9 10 10 10 11 11 11 12 12 12 12 11 11 11 10 10 10 10 10 10 10 9 9 9 9 9 9 9 9 9 9 9 9 9 8 8 8 8 8 8 7 7 7 6 6 6 6 6 6 5 6 6 6 6 7 7 8 8 8 8 9 9 9 9 9 9 10 10
9 9 9 10 10 10 11 11 11 11 12 12 11 11 11 11 10 10 10 9 9 9 9 8 8 8 8 8 8 8 8 8 8 8 8 7 7 7 7 7 7 7 6 6 6 6 6 5 5 5 5 5 5 5 6 6 6 6 7 7 7 7 7 7 8 8 8 8 8
9 9 9 10 10 10 10 10 11 11 11 11 11 11 11 11 11 10 9 9 8 8 8 8 7 7 7 7 7 7 7 7 7 7 7 7 6 6 6 6 6 6 6 5 5 5 5 5 4 4 4 4 4 4 4 5 5 5 5 5 5 6 6 6 6 7 7 7 7
9 9 9 9 9 10 10 10 10 10 10 10 11 10 10 10 11 10 9 8 8 8 7 7 7 7 7 6 7 7 7 6 6 6 6 6 6 5 5 5 5 5 5 5 4 4 4 4 4 4 3 3 3 3 3 4 4 4 4 4 4 5 5 5 5 5 5 5 5
9 9 9 9 9 9 10 10 10 10 10 10 10 10 10 10 10 10 9 8 8 7 7 7 6 6 6 6 6 6 6 6 6 5 5 5 5 5 4 4 4 4 4 4 4 4 4 4 4 3 3 2 2 2 3 3 3 3 3 3 3 4 4 4 4 4 4 4 4
9 9 9 9 9 10 10 10 10 10 10 10 10 10 10 9 10 10 9 8 7 7 6 6 6 6 6 6 6 5 5 5 5 5 5 5 5 4 4 4 4 4 4 4 4 3 3 3 3 2 2 2 2 2 2 2 2 2 2 2 3 3 3 3 3 3 3 3 4
9 9 9 9 10 10 10 10 10 10 9 9 9 9 9 9 9 9 9 8 7 7 6 6 6 6 6 5 5 5 5 5 5 4 4 5 4 4 4 4 3 3 3 3 3 3 3 3 2 2 2 2 2 2 2 2 2 2 2 2 2 2 2 2 2 3 3 4 4
9 9 9 9 9 10 10 10 10 10 9 9 9 9 9 8 9 9 9 8 7 6 6 6 6 5 5 5 5 5 5 5 4 4 4 4 4 4 3 3 3 3 3 3 3 3 3 2 2 2 2 2 2 2 2 3 2 2 1 1 1 1 1 2 2 2 3 4 4
8 8 9 9 9 9 10 10 10 10 9 9 9 8 8 8 8 8 8 8 7 6 6 6 5 5 5 5 5 5 4 4 4 4 4 4 4 3 3 3 3 3 3 2 2 2 2 2 2 2 1 1 1 2 2 2 2 2 1 1 1 1 1 1 1 2 2 3 3
8 8 8 9 9 9 9 9 9 9 9 9 9 8 8 8 8 8 8 7 7 6 6 5 5 5 5 5 5 4 4 4 4 4 4 3 3 3 3 3 3 3 3 2 2 2 2 2 2 2 1 1 1 1 2 2 2 2 1 1 1 1 1 1 1 1 1 2 2
7 8 8 8 9 9 9 9 9 9 9 9 8 8 8 7 7 7 8 7 6 6 5 5 5 5 5 5 4 4 4 4 4 4 3 3 3 3 3 3 3 3 3 3 3 3 3 2 2 2 2 2 2 2 2 2 2 1 1 1 1 0 0 0 0 0 1 1 1
7 7 8 8 8 9 9 9 9 9 9 8 8 8 8 7 7 7 7 7 6 6 5 5 5 5 5 5 4 4 4 4 4 4 4 4 4 4 3 3 3 3 3 3 3 3 3 3 3 2 2 2 2 2 2 2 2 1 1 1 0 0 0 0 0 0 1 1 1
7 7 7 7 8 8 8 9 9 9 9 8 8 8 7 7 7 7 7 7 6 6 5 5 5 5 5 5 4 4 4 4 4 4 4 4 4 4 4 4 3 3 3 3 3 4 4 3 3 3 3 2 2 2 2 2 2 1 1 1 1 0 0 0 0 0 1 1 1
6 6 7 7 7 8 8 8 9 9 9 8 8 7 7 7 7 7 7 6 6 6 5 5 5 5 5 4 4 4 4 5 4 4 4 4 4 4 4 4 4 3 3 4 4 4 4 3 3 3 3 2 2 2 2 2 1 1 1 1 1 1 1 1 1 1 1 1 1
6 6 6 6 7 7 7 8 8 8 8 8 8 8 7 7 7 7 6 6 6 5 5 5 5 5 5 4 4 4 5 5 5 5 4 5 5 4 4 4 4 4 4 4 4 4 4 3 3 3 3 2 2 2 2 2 2 1 1 1 1 1 1 1 1 1 1 1 1
5 6 6 6 6 6 7 7 7 8 8 8 8 7 7 7 7 7 6 6 6 5 5 5 5 5 5 5 4 5 5 5 5 5 5 5 5 5 4 4 4 4 4 4 4 4 3 3 3 3 2 2 2 2 2 2 2 2 2 2 1 1 1 1 1 1 1 1 2
5 5 5 5 6 6 6 6 7 7 7 7 7 7 7 7 6 6 6 6 5 5 5 5 5 5 5 5 5 5 5 5 5 5 5 5 5 5 5 4 4 4 4 4 4 3 3 3 3 3 2 2 2 2 2 2 2 2 2 2 1 1 1 1 1 2 2 2 2
5 5 5 5 5 5 5 5 6 6 7 7 7 7 7 7 6 6 6 6 5 5 5 5 5 5 5 5 5 5 5 5 5 5 5 5 5 5 5 4 4 4 4 4 4 4 3 3 3 3 3 3 3 3 3 2 2 2 2 2 2 2 2 2 2 2 2 2 2
4 4 4 4 4 4 4 4 5 5 6 6 6 6 7 7 6 6 6 6 5 5 5 5 5 5 5 5 5 5 5 5 6 6 6 5 5 5 5 4 4 4 4 4 4 4 3 3 3 3 3 3 3 3 3 3 3 2 2 2 2 2 2 2 2 2 2 2 2
4 3 3 3 3 3 3 3 3 4 5 5 6 6 6 6 6 6 6 6 5 5 5 5 5 5 5 5 5 5 5 6 6 6 6 6 5 5 5 4 4 4 4 4 4 4 4 3 3 3 3 3 3 3 3 3 3 2 2 2 2 2 2 2 2 2 2 2 2
3 3 2 2 2 2 2 2 3 3 4 5 5 5 6 6 6 6 6 6 5 5 5 5 5 5 5 5 5 5 5 6 6 6 6 6 5 5 5 5 4 4 4 4 4 4 4 4 3 3 3 3 3 3 3 3 2 2 2 2 2 2 2 2 2 2 2 2 2
3 2 2 2 1 2 2 2 2 3 4 4 5 5 6 6 6 6 6 6 5 5 5 5 5 5 5 5 5 5 5 6 6 6 6 6 6 5 5 5 5 5 5 4 4 4 4 4 4 3 3 3 3 3 3 2 2 2 2 2 2 2 2 2 2 2 2 2 2
2 2 1 1 1 1 2 2 2 3 3 4 5 5 5 6 6 6 6 6 5 5 5 5 5 5 5 5 5 5 5 6 6 6 6 6 6 5 5 5 5 5 5 4 4 4 4 4 4 4 4 3 3 3 3 2 2 2 2 2 2 2 2 2 2 2 1 1 1
2 2 1 1 1 1 2 2 2 3 3 4 4 5 5 6 6 6 6 5 5 5 5 6 5 5 5 5 5 5 5 6 6 6 6 6 6 6 6 6 6 5 5 4 4 3 3 3 4 4 4 4 3 3 2 2 2 2 2 2 2 2 2 2 1 1 1 1 0
2 2 1 1 1 2 2 2 2 3 3 4 4 5 5 6 6 6 6 5 5 5 5 5 5 5 5 5 5 5 5 6 6 6 6 6 6 6 6 6 6 5 4 4 3 3 3 3 3 4 4 3 3 3 2 2 2 2 2 2 2 2 1 1 1 1 1 0 -0
2 2 1 1 1 2 2 2 2 3 3 3 4 4 5 6 6 6 6 6 5 5 5 5 5 5 5 5 5 5 5 6 6 7 6 6 6 6 6 6 6 5 4 3 3 3 3 3 3 3 3 3 3 3 2 2 2 2 2 2 1 1 1 1 1 1 0 -0 -1
2 2 2 1 1 2 2 2 2 3 3 3 4 4 5 6 6 6 6 6 6 5 5 5 5 5 5 5 5 5 5 6 7 7 7 6 6 7 7 6 5 4 3 3 3 3 3 3 3 3 3 3 3 2 2 2 2 2 2 2 1 1 1 1 1 1 0 -0 -0
2 2 2 1 1 2 2 2 2 2 3 3 4 4 5 6 6 6 6 6 6 6 5 5 5 4 4 4 4 5 5 6 7 7 7 7 7 7 7 6 5 4 3 3 3 3 3 3 3 3 3 3 2 2 2 2 2 2 2 2 2 2 1 1 1 1 1 0 -0
2 2 2 1 1 1 2 2 2 2 2 3 3 4 5 6 6 6 6 6 6 6 5 5 4 4 4 4 4 4 5 5 6 7 7 7 7 7 6 6 4 3 3 3 3 3 3 3 3 3 2 2 2 2 2 2 2 2 2 2 2 2 1 1 1 1 1 1 0
2 2 2 1 1 1 1 2 2 2 2 3 3 4 5 6 6 6 6 6 6 6 5 5 4 4 3 4 4 4 4 5 6 7 7 7 7 7 6 5 4 3 2 3 3 3 3 3 2 2 2 2 2 2 3 3 3 2 2 2 2 1 1 1 1 1 1 1 1
2 2 2 1 1 1 1 1 2 2 2 2 3 4 5 6 6 6 6 6 6 6 5 5 4 3 3 3 3 3 3 4 5 6 6 6 7 6 6 5 4 3 2 2 2 2 2 2 2 2 2 2 2 2 3 3 3 2 2 2 1 1 1 1 1 1 1 1 1
2 2 1 1 1 1 1 1 1 1 2 2 3 4 5 5 6 6 6 6 6 6 6 5 4 3 3 3 3 3 3 3 5 5 6 6 6 6 6 5 3 2 2 2 2 2 2 2 2 2 2 2 2 2 3 3 2 2 2 2 1 1 1 1 1 1 1 1 1
1 1 1 1 1 1 1 1 1 1 2 2 3 3 4 5 6 6 6 6 6 6 6 5 4 4 3 3 3 3 3 3 4 5 5 5 6 6 5 4 3 2 2 2 2 2 2 2 2 2 2 2 2 2 3 2 2 2 2 1 1 1 1 1 1 1 1 1 1
1 1 1 1 1 1 1 1 1 1 2 2 3 3 4 5 6 6 6 6 6 6 5 5 4 4 3 3 3 3 3 3 3 4 5 5 5 6 5 4 3 2 1 2 2 2 2 2 2 2 2 2 2 2 2 2 2 2 1 1 1 1 1 1 1 1 0 0 0
1 1 0 0 1 1 1 1 1 1 2 2 3 3 4 4 5 6 6 6 6 5 5 4 4 4 3 3 3 2 2 2 3 4 4 5 5 5 5 4 2 1 1 1 1 1 1 1 1 2 2 2 2 2 2 2 2 1 1 1 1 1 1 0 0 0 0 -0 -0
1 0 0 0 0 1 1 1 1 1 2 2 3 3 4 5 5 6 6 6 5 5 4 4 4 3 3 3 3 2 2 2 2 3 4 5 5 5 5 3 2 1 1 1 1 1 1 1 2 2 2 2 2 2 2 1 1 1 1 1 1 0 0 -0 -0 -0 -0 -1 -1
0 0 0 0 0 0 1 1 1 2 2 2 3 3 4 5 5 6 6 5 5 4 4 4 3 3 3 3 2 2 2 1 2 2 3 5 5 5 4 3 2 1 0 0 1 1 1 1 2 2 2 2 2 2 1 1 1 1 0 0 0 -0 -0 -0 -1 -1 -1 -2 -2
0 0 -0 0 0 0 1 1 2 2 2 3 3 3 4 4 5 6 5 5 4 4 4 3 3 3 3 2 2 1 1 1 1 2 3 4 5 4 4 2 1 0 -0 0 1 1 1 1 1 1 1 2 2 1 1 1 1 0 0 -0 -0 -1 -1 -1 -1 -1 -2 -2 -3
-0 -0 -0 0 0 1 1 1 2 2 2 3 3 3 4 4 5 5 5 4 4 4 4 3 3 3 2 2 1 1 0 0 0 1 2 4 4 4 3 2 1 0 -0 -0 0 1 1 1 1 1 1 1 1 1 1 1 0 0 -0 -0 -1 -1 -1 -1 -2 -2 -2 -3 -3
Height
755 754 752 750 748 746 745 743 741 740 739 737 735 732 730 728 726 724 723 721 721 720 720 720 720 720 719 719 719 719 720 720 720 720 720 721 721 722 723 724 725 727 729 730 732 734 735 736 737 737 738 740 743 746 747 748 750 754 758 761 762 763 766 769 772 773 774 775 775
754 752 751 749 747 745 743 741 739 738 737 735 734 732 730 727 725 723 722 720 719 719 718 718 717 717 716 716 717 717 718 718 719 719 720 720 720 721 722 723 724 725 727 729 730 732 734 735 736 736 736 736 740 744 747 748 749 752 756 760 761 762 764 767 770 772 773 775 775
751 750 749 747 745 743 741 739 737 736 735 734 732 730 729 727 725 723 721 720 719 718 717 716 716 715 715 715 715 715 715 716 717 717 718 719 720 720 721 722 723 724 725 727 729 731 733 734 736 736 736 735 737 741 745 748 749 752 755 759 761 762 762 764 767 771 773 774 775
750 748 747 745 744 742 740 738 736 734 733 731 730 729 727 725 724 722 720 719 718 716 715 715 714 714 714 713 713 713 714 714 715 715 716 717 718 719 719 720 721 723 724 725 727 729 731 733 735 736 737 736 736 739 743 747 749 752 755 758 760 762 762 763 765 769 772 773 775
747 746 745 743 741 740 738 736 734 732 731 730 729 728 726 725 723 721 719 718 716 715 713 713 712 712 713 713 712 712 712 713 713 714 715 715 716 717 718 719 720 721 723 724 725 727 729 731 734 736 737 736 736 738 741 745 748 752 755 758 760 762 763 764 765 767 770 772 774
745 744 742 741 739 738 736 735 733 731 729 728 727 726 725 723 721 720 718 716 715 713 712 711 710 711 711 712 711 711 711 711 712 713 713 714 715 716 717 718 719 720 722 724 725 726 727 729 732 734 736 736 736 737 740 743 747 750 754 756 759 761 763 765 765 766 768 770 773
743 741 740 738 737 735 734 732 730 729 727 726 725 723 722 721 720 718 716 715 713 711 710 709 709 709 710 710 710 710 710 710 711 711 712 712 714 715 716 717 718 720 721 723 724 726 727 728 730 732 735 736 736 737 739 741 745 748 751 754 757 760 763 765 765 766 767 770 773
741 739 738 736 735 733 731 730 728 727 725 724 722 721 720 719 718 716 715 713 711 710 708 707 707 707 708 708 709 709 709 709 710 710 710 711 712 713 714 715 717 718 720 721 723 725 726 728 729 731 733 734 735 736 737 739 742 745 749 752 756 760 763 765 765 766 767 770 774
739 737 735 734 732 730 729 727 726 724 723 721 720 718 717 717 716 715 713 711 709 708 707 705 705 705 706 706 707 707 707 708 708 709 710 710 711 712 713 714 715 717 718 720 721 723 725 727 729 731 732 733 733 734 735 736 739 743 748 752 756 759 762 764 765 766 768 771 775
737 735 733 731 730 728 726 725 723 722 720 719 717 716 715 714 713 712 711 709 707 706 705 704 703 704 704 705 705 706 706 707 707 708 709 709 710 710 711 713 714 715 717 718 720 721 723 725 727 730 731 732 731 731 732 734 737 741 747 751 755 759 761 763 765 766 769 772 775
736 734 732 730 727 726 724 722 720 719 717 716 715 713 713 712 711 710 709 707 705 704 703 702 701 701 702 703 704 705 705 706 706 707 707 708 709 709 710 711 712 714 715 717 719 720 722 723 725 728 730 731 730 730 730 732 735 740 746 751 755 758 760 763 765 767 769 772 775
734 732 730 728 726 724 722 720 718 716 715 714 712 711 710 709 708 707 706 705 703 702 701 700 700 700 700 701 702 703 704 705 705 706 707 707 708 709 710 710 711 712 714 716 718 720 721 723 724 726 728 729 729 730 730 732 736 740 745 750 754 757 760 763 765 767 769 772 774
733 730 728 726 724 722 720 718 716 714 712 711 710 709 708 707 706 705 704 702 701 700 700 699 698 698 699 699 700 701 702 703 704 705 706 707 707 708 709 710 711 712 713 715 717 719 720 722 723 724 725 726 727 729 730 733 736 740 745 749 753 756 759 762 765 767 769 771 773
731 729 726 725 722 720 718 716 714 711 710 708 707 706 705 705 703 702 701 700 698 698 698 697 697 697 697 697 698 699 700 702 703 704 705 706 707 707 708 709 710 711 713 715 717 719 720 722 723 724 724 725 726 728 730 733 736 740 743 747 751 755 758 760 763 766 768 770 772
729 727 725 723 721 719 716 714 711 709 707 706 705 704 703 702 701 700 699 697 695 695 695 695 695 695 695 696 696 697 698 700 701 703 704 705 706 706 707 708 709 710 712 714 716 719 720 721 722 723 723 724 725 727 730 732 735 739 742 745 749 752 756 759 762 764 767 769 771
727 725 723 721 719 717 715 712 710 707 705 704 703 702 701 700 699 698 696 694 693 693 693 693 693 693 694 694 695 695 697 698 700 701 703 704 705 705 706 707 708 710 711 713 716 718 720 721 722 723 723 724 725 727 729 731 735 738 741 745 748 751 754 757 760 763 765 768 770
725 723 721 719 717 715 713 711 708 706 704 701 700 700 699 698 696 695 694 691 690 690 690 690 691 691 692 692 693 694 695 696 698 699 700 702 703 704 705 706 707 708 710 712 715 717 719 721 722 722 723 724 725 726 728 731 734 737 740 744 747 750 753 756 759 762 764 767 769
723 721 719 717 715 713 711 709 707 704 702 700 699 698 696 695 694 693 691 689 688 687 688 688 689 689 690 690 691 693 694 695 696 697 699 700 701 702 703 705 706 707 709 711 713 715 718 720 721 722 723 724 725 727 729 730 733 736 739 743 746 750 753 755 758 761 763 765 768
721 719 717 715 713 711 709 707 705 702 700 698 697 695 694 693 692 690 689 687 685 685 685 686 687 687 688 688 690 691 692 694 695 696 697 698 700 701 702 704 705 707 709 710 713 715 716 718 720 721 722 724 725 727 729 731 734 736 739 742 746 749 752 755 757 760 762 764 766
720 718 715 714 711 710 708 705 703 701 699 696 695 693 692 691 690 688 686 684 683 682 683 683 684 685 685 686 688 689 691 692 693 694 695 697 699 700 701 703 704 706 708 710 712 714 715 717 719 720 722 723 725 727 730 732 734 737 740 742 745 748 751 754 756 759 761 763 765
718 716 714 712 710 708 706 704 701 699 697 695 692 691 689 688 687 686 684 681 680 680 680 681 681 681 682 684 686 688 689 691 692 693 694 695 697 699 700 701 703 705 707 709 711 713 714 716 718 719 721 723 725 727 730 732 735 737 740 742 745 748 750 753 755 758 760 762 764
716 715 712 710 708 706 704 702 700 697 695 693 690 688 687 685 684 683 681 680 678 678 678 678 678 679 680 681 683 685 687 689 690 691 693 694 696 697 699 700 702 704 705 707 709 711 713 715 717 719 721 723 725 728 730 732 735 737 740 742 745 747 750 752 754 757 759 761 763
715 713 711 709 706 704 702 700 698 695 693 690 688 686 684 682 681 680 679 678 677 676 675 676 676 677 678 679 681 683 685 687 689 690 691 693 694 696 698 699 701 702 704 706 708 710 712 714 717 719 721 723 725 728 730 732 734 736 739 741 744 746 749 751 754 756 758 760 762
713 711 709 706 704 702 700 698 696 693 691 688 686 684 682 680 678 677 676 677 675 674 673 674 675 675 676 678 680 681 683 685 687 688 689 691 692 694 696 698 699 701 702 704 706 708 710 713 716 718 720 723 725 728 730 732 734 736 738 740 743 745 748 750 753 755 757 760 762
711 709 706 704 702 700 698 695 693 691 689 686 684 681 679 677 675 675 675 675 674 672 672 672 673 674 675 676 678 680 681 683 684 686 687 689 690 692 694 696 698 699 701 703 704 706 708 711 714 717 720 722 725 727 730 732 734 736 738 740 742 745 747 750 752 755 757 759 761
708 706 704 702 700 697 695 693 691 689 686 684 682 680 677 675 673 672 672 672 672 671 671 670 671 672 673 675 676 678 680 681 682 684 685 687 689 690 692 694 696 698 700 701 702 704 707 709 712 715 718 721 724 726 729 732 734 736 738 740 742 744 746 749 751 754 756 758 760
706 704 702 699 697 695 692 690 688 686 684 682 680 677 675 672 671 670 670 670 671 671 670 670 670 671 672 673 675 676 678 679 680 682 683 685 687 689 690 692 694 696 698 700 701 703 706 709 711 713 716 719 722 725 728 731 734 736 738 740 742 744 745 748 750 753 755 758 760
704 701 699 697 695 692 690 687 685 683 681 679 677 675 672 670 668 667 667 668 669 670 670 669 670 671 672 673 674 675 676 677 678 680 681 684 685 687 689 691 693 695 696 698 700 703 705 708 710 712 715 717 720 723 726 730 733 735 738 740 742 744 746 748 750 752 755 757 759
701 699 697 695 692 690 687 685 682 680 678 676 675 672 670 667 666 665 665 666 667 668 668 669 670 672 672 672 672 673 675 676 676 678 680 682 684 686 688 690 692 694 695 697 700 702 705 707 710 711 714 716 719 722 726 729 732 735 737 740 742 744 746 748 750 752 754 756 758
699 696 695 692 690 687 685 682 680 678 676 674 672 669 667 664 663 662 663 664 664 665 666 668 671 672 671 670 671 673 674 675 675 676 678 680 683 685 687 689 691 693 695 696 699 702 704 707 709 711 713 715 718 721 725 728 731 733 736 739 741 743 745 747 749 751 753 755 757
696 694 692 690 688 685 683 680 677 675 674 672 669 667 664 661 660 660 660 661 662 663 665 666 669 671 671 670 671 673 674 674 675 675 677 679 681 684 686 689 691 693 695 696 699 701 704 706 708 710 712 715 717 720 724 727 730 732 735 738 740 742 745 747 749 750 752 754 756
694 692 690 687 685 682 680 678 675 673 671 669 667 664 661 659 657 657 658 659 660 661 663 665 667 670 671 670 671 672 673 674 675 675 677 679 681 683 686 688 691 693 694 696 699 701 704 706 708 710 712 714 717 720 723 726 729 732 735 737 739 741 744 746 748 750 752 754 755
692 690 687 685 682 680 677 675 673 671 669 667 665 662 659 656 655 655 656 657 658 659 660 662 665 668 669 670 670 671 672 674 675 676 677 679 681 683 685 688 691 693 694 696 699 701 703 705 707 710 712 715 717 720 723 726 729 732 734 737 739 741 743 745 747 750 752 754 755
690 687 685 682 679 677 675 673 670 668 666 664 662 659 656 654 653 652 653 654 655 656 658 660 662 664 666 667 668 669 671 674 675 677 678 680 681 683 685 688 691 693 694 696 698 700 703 705 707 710 712 715 718 721 724 726 729 731 734 736 739 741 743 745 747 750 752 754 755
688 685 682 680 677 674 672 670 668 666 663 661 659 657 655 652 650 650 650 651 653 654 656 658 660 662 664 665 666 668 670 673 675 677 679 680 682 684 686 688 691 693 694 696 698 700 702 704 707 710 712 715 718 721 724 726 728 731 733 736 739 741 743 746 748 750 752 754 755
686 683 680 677 675 672 670 668 665 663 661 659 657 655 653 650 648 647 648 649 650 652 654 656 659 660 662 664 665 667 669 672 675 677 679 681 682 684 686 689 691 693 695 696 698 700 702 704 707 710 712 715 718 721 724 726 728 731 734 736 739 741 744 746 748 750 752 754 755
684 681 678 675 672 670 667 665 663 661 659 656 654 652 650 648 646 645 645 647 648 650 652 654 656 658 660 662 664 666 669 671 674 676 679 681 683 685 686 689 691 694 695 696 698 699 701 704 707 710 712 715 718 721 723 726 729 731 734 736 739 741 744 746 748 750 752 754 755
682 679 677 674 670 668 665 663 661 659 656 654 652 650 648 646 645 644 643 644 645 647 650 652 654 657 659 661 663 665 668 670 673 675 678 681 683 685 687 689 691 694 695 696 697 699 701 704 707 710 712 715 717 720 723 725 728 731 734 736 739 742 744 746 748 750 752 754 755
680 677 675 672 669 666 663 661 659 656 654 652 650 648 647 645 644 642 642 642 643 645 648 650 653 655 658 660 663 665 667 670 672 675 677 680 682 684 686 689 691 694 695 696 697 699 702 705 707 709 712 714 717 720 722 725 728 730 733 736 739 742 744 746 748 750 752 753 754
678 675 673 670 667 664 661 659 656 654 652 650 649 647 645 644 642 642 641 642 643 645 647 650 652 655 658 660 662 665 667 669 672 675 677 680 682 684 686 688 691 694 695 697 698 700 702 705 707 709 711 714 716 719 721 724 727 730 733 736 738 741 744 746 748 750 752 753 754
675 673 670 668 665 662 659 657 654 652 650 649 647 646 644 643 642 641 642 642 643 644 646 649 652 654 657 660 662 664 667 670 672 675 678 680 682 684 686 689 691 694 696 698 699 700 702 705 707 709 711 714 716 719 721 724 726 729 732 735 738 740 743 745 748 750 751 753 755
Wind_Speed
22 22 22 22 22 22 22 23 24 24 25 25 24 23 21 20 19 20 20 21 21 21 21 22 23 24 25 25 26 27 27 27 28 29 30 31 32 33 33 34 34 33 32 31 30 29 28 29 30 30 29 27 24 24 25 28 29 29 28 29 28 27 27 25 23 22 21 20 19
22 22 22 22 22 22 22 23 23 24 24 24 24 23 22 19 18 18 19 19 20 20 21 22 24 26 27 27 27 27 28 28 28 29 30 31 32 32 33 33 32 32 32 31 30 30 29 29 30 30 30 29 28 26 25 25 27 29 29 28 27 26 25 23 21 20 20 20 18
21 22 22 23 23 22 22 23 23 24 25 26 25 24 23 21 18 16 16 17 18 19 20 22 24 26 27 27 27 28 28 29 29 30 30 30 31 32 32 33 32 32 32 32 31 31 30 29 29 29 29 29 30 29 27 24 25 27 28 26 25 24 23 23 21 20 19 18 17
22 21 22 22 23 23 23 23 24 25 26 27 27 26 25 23 20 17 16 16 17 18 19 21 23 24 25 26 26 27 27 28 29 30 30 30 30 31 31 32 32 32 32 32 33 32 31 30 29 28 28 28 30 30 28 26 24 25 26 24 23 23 23 23 21 20 18 17 15
23 22 22 22 23 24 24 24 24 25 25 26 26 26 26 25 23 21 19 17 17 18 19 21 22 23 24 24 25 26 27 28 28 29 29 29 29 29 30 31 31 32 32 32 33 33 33 32 30 28 26 26 27 28 28 26 25 24 24 23 21 21 22 22 20 18 17 15 14
25 24 24 23 23 24 24 24 24 24 25 25 26 27 28 27 25 22 19 18 19 20 20 21 22 23 23 23 24 25 26 27 27 27 28 28 28 28 28 29 30 31 31 31 32 33 33 33 31 28 27 26 26 27 27 26 25 23 23 23 21 21 21 21 18 17 16 15 14
27 27 26 25 24 24 24 25 25 25 24 25 27 28 29 29 28 25 22 20 20 21 21 22 23 23 23 24 25 25 26 26 27 27 27 28 28 28 28 29 30 30 30 31 31 32 33 33 32 30 29 28 28 28 28 28 27 25 24 23 22 21 20 19 17 16 16 16 15
28 28 27 27 26 25 25 25 25 25 25 25 26 28 30 31 31 29 26 22 21 22 23 23 24 24 24 24 25 26 26 27 27 27 27 28 28 28 29 29 30 30 31 32 32 32 32 32 31 31 31 31 31 31 31 31 29 27 26 24 22 20 18 17 16 16 17 17 16
29 29 28 28 27 27 26 26 25 26 26 27 28 29 30 32 33 31 27 23 22 23 23 24 24 25 25 25 25 26 27 27 27 27 28 28 29 29 29 30 30 31 32 33 33 33 33 31 30 30 31 32 33 34 34 33 32 30 27 25 23 21 19 18 17 17 17 17 17
30 30 30 29 29 28 27 27 26 26 26 27 29 30 31 33 34 32 28 25 24 24 24 24 25 25 26 26 26 26 27 27 27 28 28 28 29 30 30 30 31 31 31 32 33 34 33 31 30 29 30 32 34 35 35 35 34 31 28 26 23 22 21 20 20 19 18 17 16
32 32 31 30 30 29 28 28 27 26 26 27 29 30 31 32 33 32 28 25 24 24 24 25 25 26 26 26 26 26 26 26 27 27 28 29 30 30 30 30 32 32 31 32 33 33 32 31 31 30 29 30 33 34 35 35 34 32 30 27 25 23 22 21 20 19 18 17 16
32 32 32 32 31 30 30 29 27 27 26 27 28 30 31 32 32 31 28 26 25 25 24 25 25 26 27 26 26 26 25 25 26 26 27 28 29 29 30 30 31 32 32 32 31 30 30 31 31 32 31 30 31 32 34 35 34 33 31 29 27 25 23 21 20 19 17 17 16
33 33 33 32 32 31 31 30 28 27 27 27 28 30 31 32 32 31 29 27 26 25 24 25 26 26 26 26 26 26 25 25 26 27 27 28 29 29 30 30 31 31 31 31 30 29 29 30 33 34 33 32 31 32 34 35 34 33 32 30 28 26 25 23 21 19 18 17 17
33 33 33 32 32 32 31 30 29 28 27 27 28 29 31 32 32 31 29 27 26 25 25 25 26 26 26 26 27 27 27 27 27 28 28 29 29 30 30 30 31 31 31 31 29 29 30 31 33 34 34 34 33 34 34 34 34 34 33 32 30 28 26 25 23 21 19 19 18
33 32 32 32 32 32 31 30 29 28 27 27 27 28 30 32 31 30 29 28 27 27 26 26 26 27 27 27 27 28 28 28 29 29 29 30 30 30 31 31 31 31 31 30 29 29 30 32 33 34 34 34 34 34 34 34 34 34 33 32 31 29 27 26 24 22 21 21 20
33 33 32 32 32 31 31 31 29 28 27 26 26 28 30 31 31 30 29 29 29 28 27 27 27 27 27 28 28 28 29 29 30 31 31 31 31 31 31 31 31 31 31 30 29 29 29 30 31 32 33 33 33 33 33 33 33 32 32 31 30 29 28 27 25 24 23 23 22
33 33 32 32 31 31 31 31 31 30 29 28 27 27 29 31 31 30 30 30 29 28 28 28 28 28 27 27 28 28 29 30 31 32 32 31 31 31 31 31 31 31 30 30 29 28 28 28 29 30 32 32 32 32 32 33 32 32 32 31 30 29 28 27 25 25 24 24 24
33 33 32 32 31 31 32 32 32 31 31 31 29 28 28 30 31 31 30 30 30 29 29 29 28 28 28 28 28 29 29 30 31 32 32 32 32 31 31 31 30 30 30 29 29 28 28 28 28 29 30 31 31 31 32 32 32 32 31 30 29 28 27 27 26 25 25 25 24
34 33 32 32 31 31 32 32 32 32 32 32 31 29 29 30 31 31 30 31 31 31 30 30 29 28 28 29 29 29 29 30 31 32 32 32 32 31 30 29 30 29 29 29 29 29 29 29 28 29 29 30 30 30 30 30 30 30 30 29 28 28 27 27 26 25 25 25 24
33 33 32 32 31 31 32 32 33 33 32 32 31 30 30 31 32 31 31 31 32 31 31 31 30 30 29 30 30 30 29 30 31 32 32 32 31 31 30 29 29 29 29 28 28 28 29 29 29 29 29 29 29 29 28 28 28 28 28 28 27 27 27 26 26 25 25 24 24
33 33 32 31 31 31 32 32 33 33 33 32 32 31 31 31 32 33 32 31 32 31 31 32 32 31 31 32 32 31 30 30 31 32 31 31 31 31 30 30 29 29 28 27 27 28 28 28 29 29 29 29 29 28 28 27 27 27 27 26 26 26 26 25 25 24 24 23 23
33 33 32 32 31 31 32 32 33 33 34 34 33 32 32 31 33 33 32 31 31 31 32 32 33 33 33 33 34 33 32 30 31 31 31 31 30 30 29 29 29 28 27 27 27 27 28 28 28 28 29 28 28 28 28 27 27 27 27 26 26 26 25 24 24 23 23 22 21
33 33 32 32 32 32 32 32 33 34 34 34 33 33 33 32 33 33 32 30 30 31 32 32 33 33 34 34 35 35 33 31 31 31 30 30 29 29 29 28 28 28 27 27 27 27 27 27 27 28 28 28 28 28 27 27 27 27 27 26 26 25 24 23 23 22 21 21 20
34 33 33 32 32 32 32 32 33 33 34 34 33 33 33 33 33 32 30 29 30 32 33 32 33 33 34 34 35 35 33 31 31 31 31 31 29 28 28 28 28 28 27 26 27 28 28 28 28 27 27 27 27 27 26 26 26 26 27 27 26 25 24 23 22 22 21 20 19
34 34 33 33 32 32 32 32 32 33 33 33 33 33 33 33 32 31 28 27 28 31 32 33 33 33 33 34 35 35 33 31 31 31 32 31 29 28 28 28 27 27 26 26 30 31 31 30 29 28 27 27 26 26 25 25 25 26 26 27 26 25 24 23 22 21 20 19 18
35 34 33 33 33 32 32 32 32 32 32 32 33 33 33 33 32 30 28 27 28 30 31 32 32 32 32 33 34 34 33 31 31 32 32 30 29 29 28 27 26 25 26 29 33 34 34 33 31 29 28 27 27 26 25 24 25 26 26 26 26 25 24 23 22 21 20 19 18
36 35 34 33 33 33 33 33 32 32 32 32 32 32 32 32 31 29 28 28 28 29 30 30 30 30 31 33 34 34 33 31 31 32 32 31 31 30 29 27 26 25 26 32 36 37 36 35 33 31 30 28 27 26 25 25 25 25 25 25 25 25 24 24 23 21 20 19 19
36 35 34 33 32 32 32 32 32 31 31 31 31 32 32 32 30 28 27 28 29 29 29 29 28 27 28 29 32 33 33 31 31 31 32 31 31 31 29 27 25 26 29 35 38 38 37 36 35 33 32 30 29 28 27 26 26 25 24 24 23 24 24 23 23 22 21 20 20
35 34 33 33 32 32 32 32 31 30 30 30 31 31 31 31 29 27 27 28 29 30 29 26 24 22 23 26 30 32 32 31 30 31 31 31 31 30 29 27 25 27 33 38 40 39 38 37 36 35 34 32 30 28 27 27 26 25 24 23 23 23 22 22 22 22 22 22 21
34 33 32 32 31 31 31 31 30 30 29 29 30 30 30 29 28 27 27 28 30 30 29 25 21 19 21 24 28 30 30 29 29 30 31 32 31 30 28 26 26 29 35 40 41 40 39 38 37 36 35 34 31 29 27 26 26 25 23 23 23 23 23 22 22 22 22 22 22
34 33 32 32 31 31 30 30 30 29 28 28 28 29 29 28 27 27 28 29 30 30 29 26 22 20 21 23 26 27 27 26 27 29 31 31 31 30 28 26 27 31 37 41 42 41 40 39 38 38 37 35 32 29 27 26 26 24 23 23 23 23 23 23 23 23 23 23 23
34 33 33 32 32 31 30 30 30 29 28 27 28 28 28 27 26 27 28 29 30 30 29 28 25 23 23 24 26 27 26 24 25 27 29 30 30 30 28 27 28 32 38 42 42 41 40 40 39 39 38 35 32 29 27 26 25 24 24 24 24 24 23 22 22 22 23 23 22
34 34 33 33 33 32 31 30 30 29 28 27 27 27 27 26 25 27 28 29 30 30 30 30 28 26 25 26 26 26 24 22 23 25 28 29 29 29 28 27 28 34 40 43 42 41 41 41 40 39 38 35 30 28 26 25 24 23 23 23 23 23 23 22 22 22 22 22 21
34 34 34 34 33 33 32 31 31 30 29 27 26 26 26 24 24 27 29 30 31 31 32 32 31 30 29 29 28 26 24 22 22 24 26 28 28 28 28 27 28 34 41 43 42 42 42 42 41 40 37 34 29 26 25 25 23 23 23 23 23 22 22 22 22 22 21 21 19
34 34 35 35 34 34 33 31 31 30 28 27 25 25 25 24 24 27 30 31 32 32 33 32 32 32 32 31 31 29 27 23 21 23 26 27 28 28 28 27 28 35 42 43 42 42 42 42 42 40 36 32 27 25 24 24 24 24 24 24 23 22 22 21 21 21 20 19 19
34 34 35 35 35 34 33 31 30 29 28 26 24 24 24 24 23 26 30 32 32 31 31 30 30 30 31 31 31 31 30 26 23 23 26 28 29 28 27 27 30 36 42 43 42 42 43 43 42 39 35 30 26 24 24 24 24 24 24 24 23 22 22 21 21 20 19 18 18
35 35 35 35 35 34 32 31 30 29 27 26 24 23 23 24 23 25 30 32 30 29 28 28 28 28 29 30 31 32 32 29 26 25 27 29 30 29 28 28 31 37 41 43 43 43 44 43 41 38 34 28 25 24 24 23 23 23 24 23 23 22 21 20 20 19 18 18 18
35 35 34 34 34 33 32 31 30 29 28 26 24 23 22 22 23 25 28 29 29 28 27 27 27 27 28 28 29 31 32 31 28 28 29 30 31 30 29 29 33 37 41 43 43 44 43 42 40 37 33 28 25 24 23 23 23 23 23 22 22 21 20 19 18 18 17 17 18
35 35 34 34 33 33 32 31 29 28 27 26 24 23 22 21 21 23 25 27 28 28 28 27 27 27 27 28 28 29 30 30 29 29 30 31 31 31 31 32 34 37 39 42 43 43 43 41 40 36 32 28 26 24 23 23 23 23 23 22 21 20 19 18 17 17 17 17 19
35 34 34 33 32 32 31 30 29 28 26 25 23 22 21 20 20 20 23 25 27 28 28 27 27 27 27 27 27 27 27 29 29 29 29 31 31 31 32 33 34 36 38 41 43 43 42 41 39 36 32 28 26 24 23 23 23 23 22 21 20 19 18 17 16 16 17 18 19
35 34 33 33 32 31 31 30 29 28 26 25 23 22 21 20 18 18 21 23 25 26 26 26 27 27 27 27 26 26 26 27 29 28 28 29 30 31 33 33 34 35 37 40 41 42 42 41 38 35 32 27 25 24 23 23 23 23 22 21 20 19 18 17 16 16 16 17 18
Wind_Direction
308 307 307 306 305 302 299 296 292 289 287 286 285 281 277 273 269 265 262 259 252 247 242 237 234 232 230 227 224 222 219 214 211 209 207 205 204 202 200 199 199 198 196 195 193 191 190 188 186 183 179 177 177 180 183 184 186 188 190 192 191 191 190 189 188 187 184 182 181
305 304 304 303 301 300 298 295 291 287 284 283 282 279 276 271 266 263 259 253 248 243 238 233 230 229 227 225 222 220 217 214 211 209 208 207 206 204 202 200 198 196 194 192 189 187 186 185 183 179 176 174 175 177 178 179 182 184 187 189 188 185 182 180 179 179 179 178 176
301 301 301 301 300 299 296 294 291 288 284 281 279 277 274 272 268 262 256 251 246 239 233 228 226 225 223 220 218 215 213 211 210 208 206 205 205 204 203 201 199 196 194 192 189 186 184 182 180 177 173 171 174 176 176 175 175 178 181 183 183 179 173 171 171 171 172 172 170
300 298 298 298 297 296 294 292 290 287 285 282 280 277 274 271 267 262 255 250 244 235 227 223 221 219 217 214 211 208 207 207 206 204 202 201 201 201 200 199 196 195 193 191 189 187 184 182 178 175 172 169 169 171 173 173 172 174 176 178 178 176 172 168 166 165 165 164 162
301 298 295 295 294 293 291 289 286 284 283 281 280 277 274 271 267 263 256 246 236 228 222 219 217 214 211 208 205 203 202 202 200 200 200 198 197 195 194 195 194 192 190 189 187 185 183 180 175 172 168 165 163 164 166 166 166 168 170 170 169 169 168 165 160 158 157 156 155
302 299 296 293 292 291 289 287 283 281 280 279 277 275 272 269 267 262 252 240 233 226 220 216 213 210 206 203 200 199 198 196 195 195 195 194 193 191 190 190 190 189 187 185 183 182 180 176 171 166 162 158 153 153 153 154 154 155 157 159 159 159 159 156 151 148 147 148 149
301 299 296 294 291 290 288 285 283 280 278 277 274 272 270 268 266 262 253 240 232 224 218 213 210 206 202 198 196 194 194 193 191 190 189 188 187 185 184 185 185 183 182 181 179 177 174 172 166 161 156 151 146 143 143 143 143 142 143 145 147 148 148 146 142 139 141 145 147
301 298 296 294 292 290 287 285 282 279 277 275 273 270 268 266 264 261 253 238 228 221 216 211 207 203 199 196 194 192 191 190 188 186 185 183 183 182 181 179 179 178 177 177 175 172 169 167 162 158 154 150 144 141 140 139 136 133 132 132 134 137 138 138 136 136 139 144 149
301 299 297 295 293 290 288 286 282 279 275 273 271 269 267 264 262 258 249 233 224 219 215 209 205 201 198 195 193 191 189 187 185 183 182 182 180 177 175 175 173 172 172 172 170 168 166 163 160 157 154 151 147 144 143 141 137 132 129 127 129 131 133 134 134 135 138 143 149
301 299 298 296 293 291 289 287 283 279 274 272 270 269 266 263 260 255 246 231 222 216 212 207 203 199 196 193 191 190 188 186 183 181 179 178 176 174 173 172 170 167 165 166 166 165 163 160 158 156 154 152 148 146 145 144 141 137 134 133 133 133 134 134 135 136 138 143 147
301 299 298 296 294 292 290 287 284 280 275 272 270 268 265 262 258 252 242 229 219 213 210 206 200 196 194 192 190 188 186 184 181 179 177 176 174 172 170 169 168 165 163 163 163 162 161 158 156 153 150 148 145 143 143 143 142 140 139 140 140 140 139 140 141 142 143 147 149
301 299 297 295 294 292 290 288 284 280 276 272 270 268 265 261 256 248 239 227 217 211 208 204 199 195 192 190 189 187 184 182 179 177 174 173 171 169 167 166 165 163 161 160 160 159 158 155 152 150 147 143 141 140 140 141 142 142 144 146 146 147 147 148 148 149 150 152 153
302 300 298 296 294 293 290 288 284 281 276 272 269 268 265 260 253 245 235 224 215 210 207 203 198 194 191 189 187 185 183 181 178 176 173 171 169 167 165 163 161 160 158 158 158 157 155 153 151 148 146 143 142 142 143 143 144 146 148 149 151 151 152 154 155 155 155 156 156
302 300 298 297 295 293 291 288 285 281 277 273 269 267 263 259 252 241 230 220 213 209 205 201 198 195 192 188 186 183 181 180 178 176 173 171 169 167 164 162 160 159 158 158 158 157 155 154 152 150 148 146 146 146 147 148 149 150 151 152 153 154 155 156 157 158 158 159 159
303 300 298 297 296 294 291 288 286 282 278 274 270 266 263 258 252 241 229 218 212 208 205 201 198 196 193 189 185 182 180 179 178 176 174 172 170 168 165 162 161 160 159 159 159 158 157 156 155 153 151 150 150 150 150 151 151 152 153 154 154 155 156 158 158 160 161 162 162
303 301 299 297 296 294 292 289 286 283 279 275 271 267 263 259 253 243 230 218 211 207 204 201 198 195 192 189 185 182 179 179 177 176 174 173 171 169 166 164 162 161 160 161 161 161 161 160 159 157 155 153 151 151 151 151 151 152 152 153 154 155 157 159 160 162 164 166 166
304 301 299 297 295 293 292 289 287 284 281 278 274 270 265 260 255 245 231 218 209 205 202 200 196 193 190 188 185 182 180 179 177 176 175 174 172 170 168 166 164 162 162 162 163 163 163 162 161 158 156 153 152 151 151 150 151 151 152 154 155 157 159 161 163 165 166 168 168
303 302 300 298 296 294 292 290 287 285 282 279 276 272 267 262 256 245 231 218 210 205 201 198 194 191 188 186 184 183 182 180 178 177 176 175 173 171 169 166 165 164 164 164 164 163 163 162 160 158 155 153 152 151 150 150 150 152 153 155 156 159 161 164 165 167 168 168 168
304 302 300 298 297 295 293 291 289 286 283 280 277 273 268 263 257 245 231 218 211 205 200 196 192 189 186 185 184 184 183 182 180 178 177 176 174 172 169 167 166 166 166 165 164 164 162 161 159 157 155 153 151 150 150 150 151 152 154 156 158 161 163 165 166 167 167 167 166
304 303 301 300 298 297 295 293 290 288 285 281 277 274 269 265 258 247 232 219 210 205 199 193 189 186 186 186 185 185 185 184 181 179 177 176 175 173 170 168 167 167 166 165 164 163 162 160 159 156 154 152 151 151 151 151 153 154 156 158 160 161 163 164 164 164 164 164 163
305 304 302 301 299 297 295 293 291 289 287 283 278 274 271 267 261 250 236 220 209 203 198 192 188 187 187 187 187 186 186 185 183 180 178 177 176 174 171 169 168 167 166 165 164 162 161 159 158 156 154 153 152 152 152 153 154 155 156 157 159 159 160 159 159 159 159 159 159
305 304 303 301 299 296 294 292 291 289 287 284 280 275 272 268 263 254 241 223 209 201 197 193 190 188 188 188 187 187 187 186 184 182 179 178 176 173 171 170 168 167 166 164 162 161 159 157 156 155 154 153 153 153 153 154 154 154 155 155 155 155 155 154 154 154 154 155 155
304 304 303 301 298 296 293 291 290 288 286 284 280 276 272 268 264 257 245 226 209 200 197 195 192 190 189 188 188 188 187 187 185 183 180 178 175 172 170 169 168 166 165 163 161 158 157 155 155 154 154 153 153 154 154 153 153 153 152 151 150 150 150 150 150 150 150 151 152
304 303 302 300 298 295 293 291 288 287 285 284 281 277 272 268 263 257 246 228 211 203 200 198 196 193 191 189 189 188 187 186 185 183 181 178 174 171 169 168 167 166 164 162 160 158 156 155 155 154 154 153 153 153 153 152 152 151 150 149 148 147 146 146 146 146 147 147 147
303 302 300 298 296 294 292 290 287 286 284 283 281 278 274 268 263 255 244 227 213 206 203 201 198 195 192 190 190 189 188 186 185 183 180 177 173 170 168 168 166 165 163 161 161 160 158 156 156 155 154 153 153 152 151 151 150 150 149 147 146 145 144 143 143 143 144 144 145
303 301 299 297 296 293 291 288 286 285 283 282 281 278 274 268 262 253 241 228 216 211 207 205 201 197 193 191 189 189 188 187 185 182 178 174 171 169 168 167 165 163 162 162 163 161 159 157 156 155 154 153 151 150 149 149 149 149 148 146 145 144 143 142 142 142 142 143 144
303 301 300 298 295 293 290 288 286 284 283 282 280 277 273 268 260 250 239 228 220 216 213 210 206 201 196 193 190 189 188 187 184 180 176 172 170 169 167 166 164 163 163 165 165 163 160 158 156 154 153 151 150 149 148 148 148 147 146 146 145 144 144 143 142 141 141 141 142
302 301 300 299 296 293 291 289 286 284 282 281 280 278 274 268 259 248 237 228 221 217 215 213 210 205 198 192 190 189 188 186 182 178 175 172 170 168 167 165 163 163 165 167 166 163 160 158 156 154 152 150 149 149 148 147 147 146 146 145 145 144 144 143 142 142 141 140 141
300 300 300 299 297 295 292 290 287 284 282 281 280 278 274 267 257 245 235 228 221 216 214 213 210 202 193 188 188 188 187 185 180 176 173 172 170 168 166 164 162 164 167 168 166 163 160 158 156 154 152 150 149 148 148 148 148 147 147 146 146 146 145 144 144 143 142 141 141
300 300 300 300 299 297 295 292 289 286 284 282 281 278 274 266 254 242 232 225 219 214 210 207 201 192 186 187 187 187 186 184 179 175 172 171 170 168 166 164 161 163 167 168 166 163 161 159 157 155 153 151 150 149 149 149 149 148 148 148 148 148 147 146 145 144 144 143 142
301 300 300 300 300 299 297 295 293 290 286 283 281 278 274 265 251 238 229 222 216 211 205 200 193 188 185 184 186 187 186 183 178 174 172 171 169 168 166 163 161 163 166 167 165 163 161 159 158 157 155 153 150 149 149 150 150 150 149 150 149 148 147 146 146 146 145 144 143
301 301 301 300 300 300 299 298 296 293 290 285 282 279 274 264 248 234 225 220 214 208 201 196 191 187 184 183 182 182 182 182 178 175 172 171 169 167 164 161 160 163 165 166 164 162 161 160 159 158 156 152 149 148 148 148 148 148 148 148 148 148 147 146 146 146 146 145 144
302 302 301 301 301 300 300 299 298 295 292 287 283 280 275 264 246 231 223 218 212 206 200 196 190 185 180 177 178 179 180 182 179 175 173 171 168 165 161 159 161 164 165 164 162 161 161 160 160 158 155 151 147 146 146 146 146 146 146 146 146 146 146 145 146 146 146 145 145
303 303 302 301 301 301 301 300 298 296 293 288 284 281 276 266 246 230 221 216 211 206 202 197 191 185 179 175 174 175 178 180 179 176 173 171 167 163 160 160 161 164 165 163 162 161 161 161 160 157 153 148 144 143 144 143 143 143 143 144 144 144 144 144 145 145 146 146 146
303 303 302 302 301 301 301 300 299 296 293 289 284 281 278 270 249 229 219 214 211 207 203 198 191 185 180 178 176 175 176 178 179 177 174 171 167 163 160 159 161 163 164 162 161 161 161 161 159 155 150 145 142 141 141 141 140 141 141 142 142 142 143 143 144 145 146 146 146
304 303 302 301 301 300 300 299 298 297 294 290 285 283 280 273 255 232 218 212 208 202 196 191 185 181 180 179 176 175 176 177 178 176 174 171 168 163 160 159 160 163 163 162 162 162 162 161 157 153 148 143 140 140 139 139 138 139 139 139 140 141 142 143 144 146 146 147 147
303 302 301 300 300 299 298 298 297 296 294 290 286 283 280 273 257 234 216 207 199 191 185 181 178 177 177 176 174 174 175 175 174 174 173 172 169 165 160 157 159 162 163 163 162 163 162 159 156 152 148 142 140 139 138 137 137 137 137 137 138 139 140 142 144 145 146 147 147
303 301 300 299 298 297 297 296 296 294 293 291 288 284 279 270 256 232 212 198 187 181 179 177 176 175 175 173 171 171 171 172 172 172 172 172 170 166 161 157 159 161 163 163 163 163 161 158 156 154 149 143 140 139 138 137 136 136 136 136 137 138 139 140 142 144 145 146 147
302 300 298 297 296 295 295 294 293 292 291 290 289 285 280 271 255 229 205 187 179 176 176 175 175 174 172 170 168 167 167 168 169 170 172 172 170 166 161 158 159 162 163 164 164 162 160 158 156 154 150 145 142 140 139 137 137 136 136 135 136 137 138 139 140 141 143 145 149
300 299 297 295 294 293 292 292 291 291 290 290 288 284 280 273 254 225 198 181 176 175 175 174 173 171 169 166 164 163 163 165 166 169 172 171 169 165 161 159 159 161 163 164 163 161 159 158 156 153 149 145 143 142 140 138 138 137 136 137 137 137 138 138 139 140 141 145 150
299 298 296 294 293 292 291 290 290 290 290 288 286 282 278 271 251 219 192 178 175 174 173 172 170 168 166 163 160 159 159 161 164 168 170 170 166 162 159 158 157 159 161 163 162 160 159 158 156 153 150 146 144 143 141 140 139 138 138 139 139 139 139 139 139 140 142 145 149